sampling_time,wmo_synop_id,msc_id,stn_nam,stn_elev,lat,long,stn_typ,date_tm,rpt_typ,result_time,crnt_buoy_lat,crnt_buoy_lat_qa_summary,crnt_buoy_long,crnt_buoy_long_qa_summary,avg_air_temp_pst10mts,avg_air_temp_pst10mts_qa_summary,avg_sea_sfc_temp_pst10mts,avg_sea_sfc_temp_pst10mts_qa_summary,avg_batry_volt_pst10mts,avg_batry_volt_pst10mts_qa_summary,avg_solr_panl_crnt_pst10mts,avg_solr_panl_crnt_pst10mts_qa_summary,avg_wtr_lvl_snsr_volt_pst10mts,avg_wtr_lvl_snsr_volt_pst10mts_qa_summary,avg_wave_hgt_pst20mts,avg_wave_hgt_pst20mts_qa_summary,pk_wave_hgt_pst20mts,pk_wave_hgt_pst20mts_qa_summary,sig_wave_pd_pst20mts,sig_wave_pd_pst20mts_qa_summary,sig_wave_hgt_pst20mts,sig_wave_hgt_pst20mts_qa_summary,avg_max_wave_hgt_pst20mts,avg_max_wave_hgt_pst20mts_qa_summary,avg_max_wave_pd_pst20mts,avg_max_wave_pd_pst20mts_qa_summary,avg_wave_pd_pst20mts,avg_wave_pd_pst20mts_qa_summary,pk_wave_pd_pst20mts,pk_wave_pd_pst20mts_qa_summary,avg_stn_pres_pst10mts,avg_stn_pres_pst10mts_qa_summary,avg_wnd_spd_pst10mts,avg_wnd_spd_pst10mts_qa_summary,avg_wnd_dir_pst10mts,avg_wnd_dir_pst10mts_qa_summary,max_avg_wnd_spd_pst10mts,max_avg_wnd_spd_pst10mts_qa_summary,wnd_snsr_vert_disp,wnd_snsr_vert_disp_qa_summary,pres_tend_amt_pst3hrs,pres_tend_amt_pst3hrs_data_flag,pres_tend_char_pst3hrs,pres_tend_char_pst3hrs_data_flag,avg_mslp_pst10mts,avg_mslp_pst10mts_data_flag,avg_stn_pres_pst10mts_1,avg_stn_pres_pst10mts_1_qa_summary,avg_stn_pres_pst10mts_2,avg_stn_pres_pst10mts_2_qa_summary,avg_wnd_spd_pst10mts_1,avg_wnd_spd_pst10mts_1_qa_summary,avg_wnd_spd_pst10mts_2,avg_wnd_spd_pst10mts_2_qa_summary,avg_wnd_dir_pst10mts_1,avg_wnd_dir_pst10mts_1_qa_summary,avg_wnd_dir_pst10mts_2,avg_wnd_dir_pst10mts_2_qa_summary,max_avg_wnd_spd_pst10mts_1,max_avg_wnd_spd_pst10mts_1_qa_summary,max_avg_wnd_spd_pst10mts_2,max_avg_wnd_spd_pst10mts_2_qa_summary
2022-05-28T00:00:00Z,44488,9302000,EAST CHEDABUCTO BAY,0,45.445,-60.9538,18,2022-05-28T00:00:00.000Z,108,2022-05-28T00:06:39.091Z,45.44517000000001,100,-60.95393000000001,100,10.2,100,8.4,100,12.7,100,0.0,100,1.6,100,0.3,100,0.9,100,5.3,100,0.5,100,0.6,100,5.7,100,3.9,100,8.7,100,1012.5,100,,-10,,-10,,-10,5,100,-0.1,1,6,1,1012.5,1,1012.5,100,1012.5,100,,-10,,-10,,-10,,-10,,-10,,-10
2022-05-28T00:10:00Z,44488,9302000,EAST CHEDABUCTO BAY,0,45.445,-60.9538,18,2022-05-28T00:10:00.000Z,110,2022-05-28T00:16:47.996Z,,-1,,-1,10.9,100,9.7,100,12.7,100,0.0,100,1.6,100,,-1,,-1,,-1,,-1,,-1,,-1,,-1,,-1,1012.5,100,,-10,,-10,,-10,5,100,-0.1,1,6,1,1012.5,1,1012.5,100,1012.5,100,,-10,,-10,,-10,,-10,,-10,,-10
2022-05-28T00:20:00Z,44488,9302000,EAST CHEDABUCTO BAY,0,45.445,-60.9538,18,2022-05-28T00:20:00.000Z,110,2022-05-28T00:26:47.332Z,45.44517000000001,100,-60.95393000000001,100,10.1,100,8.4,100,12.7,100,0.0,100,1.6,100,,-1,,-1,,-1,,-1,,-1,,-1,,-1,,-1,1012.5,100,,-10,,-10,,-10,5,100,0.0,1,5,1,1012.5,1,1012.5,100,1012.5,100,,-10,,-10,,-10,,-10,,-10,,-10
2022-05-28T00:30:00Z,44488,9302000,EAST CHEDABUCTO BAY,0,45.445,-60.9538,18,2022-05-28T00:30:00.000Z,110,2022-05-28T00:36:46.445Z,45.44518,100,-60.9539,100,10.1,100,8.3,100,12.7,100,0.0,100,1.6,100,,-1,,-1,,-1,,-1,,-1,,-1,,-1,,-1,1012.6,100,,-10,,-10,,-10,5,100,0.1,1,3,1,1012.6,1,1012.6,100,1012.6,100,,-10,,-10,,-10,,-10,,-10,,-10
2022-05-28T00:40:00Z,44488,9302000,EAST CHEDABUCTO BAY,0,45.445,-60.9538,18,2022-05-28T00:40:00.000Z,110,2022-05-28T00:46:47.781Z,45.44517000000001,100,-60.95392,100,10.0,100,8.3,100,12.6,100,0.0,100,1.5,100,,-1,,-1,,-1,,-1,,-1,,-1,,-1,,-1,1012.7,100,,-10,,-10,,-10,5,100,0.2,1,2,1,1012.7,1,1012.7,100,1012.7,100,,-10,,-10,,-10,,-10,,-10,,-10
2022-05-28T00:50:00Z,44488,9302000,EAST CHEDABUCTO BAY,0,45.445,-60.9538,18,2022-05-28T00:50:00.000Z,110,2022-05-28T00:56:50.248Z,45.44517000000001,100,-60.95393000000001,100,10.1,100,8.3,100,12.6,100,0.0,100,1.6,100,,-1,,-1,,-1,,-1,,-1,,-1,,-1,,-1,1012.6,100,,-10,,-10,,-10,5,100,0.3,1,1,1,1012.6,1,1012.6,100,1012.6,100,,-10,,-10,,-10,,-10,,-10,,-10
2022-05-28T01:00:00Z,44488,9302000,EAST CHEDABUCTO BAY,0,45.445,-60.9538,18,2022-05-28T01:00:00.000Z,108,2022-05-28T01:06:56.924Z,45.44518,100,-60.95392,100,10.1,100,8.2,100,12.6,100,0.0,100,1.5,100,0.3,100,0.7,100,4.8,100,0.5,100,0.6,100,5.5,100,3.7,100,8.3,100,1012.7,100,,-10,,-10,,-10,5,100,0.4,1,1,1,1012.7,1,1012.7,100,1012.7,100,,-10,,-10,,-10,,-10,,-10,,-10
2022-05-28T01:10:00Z,44488,9302000,EAST CHEDABUCTO BAY,0,45.445,-60.9538,18,2022-05-28T01:10:00.000Z,110,2022-05-28T01:20:05.952Z,45.44517000000001,100,-60.95395,100,10.1,100,8.2,100,12.7,100,0.0,100,1.6,100,,-1,,-1,,-1,,-1,,-1,,-1,,-1,,-1,1012.7,100,,-10,,-10,,-10,5,100,0.3,1,2,1,1012.7,1,1012.7,100,1012.7,100,,-10,,-10,,-10,,-10,,-10,,-10
2022-05-28T01:20:00Z,44488,9302000,EAST CHEDABUCTO BAY,0,45.445,-60.9538,18,2022-05-28T01:20:00.000Z,110,2022-05-28T01:27:00.250Z,45.44515,100,-60.95395,100,10.0,100,8.2,100,12.6,100,0.0,100,1.5,100,,-1,,-1,,-1,,-1,,-1,,-1,,-1,,-1,1012.8,100,,-10,,-10,,-10,5,100,0.3,1,3,1,1012.8,1,1012.8,100,1012.8,100,,-10,,-10,,-10,,-10,,-10,,-10
2022-05-28T01:30:00Z,44488,9302000,EAST CHEDABUCTO BAY,0,45.445,-60.9538,18,2022-05-28T01:30:00.000Z,110,2022-05-28T01:37:13.181Z,45.44513,100,-60.95395,100,10.0,100,8.2,100,12.6,100,0.0,100,1.5,100,,-1,,-1,,-1,,-1,,-1,,-1,,-1,,-1,1012.8,100,,-10,,-10,,-10,5,100,0.3,1,3,1,1012.8,1,1012.8,100,1012.8,100,,-10,,-10,,-10,,-10,,-10,,-10
2022-05-28T01:40:00Z,44488,9302000,EAST CHEDABUCTO BAY,0,45.445,-60.9538,18,2022-05-28T01:40:00.000Z,110,2022-05-28T01:47:11.051Z,45.44513,100,-60.95393000000001,100,9.8,100,8.1,100,12.6,100,0.0,100,1.5,100,,-1,,-1,,-1,,-1,,-1,,-1,,-1,,-1,1012.9,100,,-10,,-10,,-10,5,100,0.3,1,3,1,1012.9,1,1012.9,100,1012.9,100,,-10,,-10,,-10,,-10,,-10,,-10
2022-05-28T01:50:00Z,44488,9302000,EAST CHEDABUCTO BAY,0,45.445,-60.9538,18,2022-05-28T01:50:00.000Z,110,2022-05-28T01:57:02.369Z,45.44513,100,-60.95397,100,10.1,100,8.1,100,12.6,100,0.0,100,1.5,100,,-1,,-1,,-1,,-1,,-1,,-1,,-1,,-1,1012.9,100,,-10,,-10,,-10,5,100,0.3,1,3,1,1012.9,1,1012.9,100,1012.9,100,,-10,,-10,,-10,,-10,,-10,,-10
2022-05-28T02:00:00Z,44488,9302000,EAST CHEDABUCTO BAY,0,45.445,-60.9538,18,2022-05-28T02:00:00.000Z,108,2022-05-28T02:07:09.075Z,45.44517000000001,100,-60.95397,100,10.3,100,8.1,100,12.6,100,0.0,100,1.5,100,0.3,100,0.9,100,5.8,100,0.5,100,0.6,100,6.6,100,4.3,100,8.0,100,1012.8,100,,-10,,-10,,-10,5,100,0.2,1,3,1,1012.8,1,1012.8,100,1012.8,100,,-10,,-10,,-10,,-10,,-10,,-10
2022-05-28T02:10:00Z,44488,9302000,EAST CHEDABUCTO BAY,0,45.445,-60.9538,18,2022-05-28T02:10:00.000Z,110,2022-05-28T02:20:18.129Z,45.44513,100,-60.95393000000001,100,10.2,100,8.1,100,12.6,100,0.0,100,1.5,100,,-1,,-1,,-1,,-1,,-1,,-1,,-1,,-1,1012.8,100,,-10,,-10,,-10,5,100,0.2,1,3,1,1012.8,1,1012.8,100,1012.8,100,,-10,,-10,,-10,,-10,,-10,,-10
2022-05-28T02:20:00Z,44488,9302000,EAST CHEDABUCTO BAY,0,45.445,-60.9538,18,2022-05-28T02:20:00.000Z,110,2022-05-28T02:27:22.365Z,45.44512,100,-60.95393000000001,100,10.4,100,8.1,100,12.6,100,0.0,100,1.5,100,,-1,,-1,,-1,,-1,,-1,,-1,,-1,,-1,1012.8,100,,-10,,-10,,-10,5,100,0.4,1,2,1,1012.8,1,1012.8,100,1012.8,100,,-10,,-10,,-10,,-10,,-10,,-10
2022-05-28T02:30:00Z,44488,9302000,EAST CHEDABUCTO BAY,0,45.445,-60.9538,18,2022-05-28T02:30:00.000Z,110,2022-05-28T02:37:20.395Z,45.4451,100,-60.95392,100,10.0,100,8.1,100,12.6,100,0.0,100,1.5,100,,-1,,-1,,-1,,-1,,-1,,-1,,-1,,-1,1012.9,100,,-10,,-10,,-10,5,100,0.5,1,2,1,1012.9,1,1012.9,100,1012.9,100,,-10,,-10,,-10,,-10,,-10,,-10
2022-05-28T02:40:00Z,44488,9302000,EAST CHEDABUCTO BAY,0,45.445,-60.9538,18,2022-05-28T02:40:00.000Z,110,2022-05-28T02:48:29.246Z,45.44512,100,-60.95393000000001,100,9.4,100,8.2,100,12.6,100,0.0,100,1.5,100,,-1,,-1,,-1,,-1,,-1,,-1,,-1,,-1,1012.9,100,,-10,,-10,,-10,5,100,0.4,1,1,1,1012.9,1,1012.9,100,1012.9,100,,-10,,-10,,-10,,-10,,-10,,-10
2022-05-28T02:50:00Z,44488,9302000,EAST CHEDABUCTO BAY,0,45.445,-60.9538,18,2022-05-28T02:50:00.000Z,110,2022-05-28T02:57:29.957Z,45.44512,100,-60.95397,100,9.2,100,8.2,100,12.6,100,0.0,100,1.5,100,,-1,,-1,,-1,,-1,,-1,,-1,,-1,,-1,1012.9,100,,-10,,-10,,-10,5,100,0.4,1,1,1,1012.9,1,1012.9,100,1012.9,100,,-10,,-10,,-10,,-10,,-10,,-10
2022-05-28T03:00:00Z,44488,9302000,EAST CHEDABUCTO BAY,0,45.445,-60.9538,18,2022-05-28T03:00:00.000Z,108,2022-05-28T03:06:27.857Z,45.44513,100,-60.95395,100,9.1,100,8.2,100,12.6,100,0.0,100,1.5,100,0.3,100,0.8,100,6.5,100,0.5,100,0.6,100,7.1,100,4.5,100,7.7,100,1013.0,100,,-10,,-10,,-10,5,100,0.5,1,3,1,1013.0,1,1013.0,100,1013.0,100,,-10,,-10,,-10,,-10,,-10,,-10
2022-05-28T03:10:00Z,44488,9302000,EAST CHEDABUCTO BAY,0,45.445,-60.9538,18,2022-05-28T03:10:00.000Z,110,2022-05-28T03:19:40.886Z,45.44513,100,-60.95395,100,8.9,100,8.2,100,12.6,100,0.0,100,1.6,100,,-1,,-1,,-1,,-1,,-1,,-1,,-1,,-1,1013.0,100,,-10,,-10,,-10,5,100,0.5,1,2,1,1013.0,1,1013.0,100,1013.0,100,,-10,,-10,,-10,,-10,,-10,,-10
2022-05-28T03:20:00Z,44488,9302000,EAST CHEDABUCTO BAY,0,45.445,-60.9538,18,2022-05-28T03:20:00.000Z,110,2022-05-28T03:32:49.725Z,45.44515,100,-60.95397,100,8.4,100,8.3,100,12.6,100,0.0,100,1.6,100,,-1,,-1,,-1,,-1,,-1,,-1,,-1,,-1,1012.9,100,,-10,,-10,,-10,5,100,0.4,1,1,1,1012.9,1,1012.9,100,1012.9,100,,-10,,-10,,-10,,-10,,-10,,-10
2022-05-28T03:30:00Z,44488,9302000,EAST CHEDABUCTO BAY,0,45.445,-60.9538,18,2022-05-28T03:30:00.000Z,110,2022-05-28T03:37:37.181Z,45.44513,100,-60.95397,100,8.2,100,8.3,100,12.6,100,0.0,100,1.5,100,,-1,,-1,,-1,,-1,,-1,,-1,,-1,,-1,1012.9,100,,-10,,-10,,-10,5,100,0.3,1,0,1,1012.9,1,1012.9,100,1012.9,100,,-10,,-10,,-10,,-10,,-10,,-10
2022-05-28T03:40:00Z,44488,9302000,EAST CHEDABUCTO BAY,0,45.445,-60.9538,18,2022-05-28T03:40:00.000Z,110,2022-05-28T03:47:35.036Z,45.44508,100,-60.95399999999999,100,8.2,100,8.3,100,12.5,100,0.0,100,1.5,100,,-1,,-1,,-1,,-1,,-1,,-1,,-1,,-1,1012.9,100,,-10,,-10,,-10,5,100,0.3,1,1,1,1012.9,1,1012.9,100,1012.9,100,,-10,,-10,,-10,,-10,,-10,,-10
2022-05-28T03:50:00Z,44488,9302000,EAST CHEDABUCTO BAY,0,45.445,-60.9538,18,2022-05-28T03:50:00.000Z,110,2022-05-28T03:58:42.226Z,45.44508,100,-60.95401999999999,100,8.2,100,8.3,100,12.5,100,0.0,100,1.5,100,,-1,,-1,,-1,,-1,,-1,,-1,,-1,,-1,1013.1,100,,-10,,-10,,-10,5,100,0.5,1,1,1,1013.1,1,1013.1,100,1013.1,100,,-10,,-10,,-10,,-10,,-10,,-10
2022-05-28T04:00:00Z,44488,9302000,EAST CHEDABUCTO BAY,0,45.445,-60.9538,18,2022-05-28T04:00:00.000Z,108,2022-05-28T04:06:41.077Z,45.44508,100,-60.95403,100,8.2,100,8.2,100,12.5,100,0.0,100,1.5,100,0.3,100,0.8,100,7.1,100,0.5,100,0.6,100,7.8,100,5.0,100,9.1,100,1013.0,100,,-10,,-10,,-10,5,100,0.4,1,1,1,1013.0,1,1013.0,100,1013.0,100,,-10,,-10,,-10,,-10,,-10,,-10
2022-05-28T04:10:00Z,44488,9302000,EAST CHEDABUCTO BAY,0,45.445,-60.9538,18,2022-05-28T04:10:00.000Z,110,2022-05-28T04:19:54.159Z,45.44508,100,-60.95405,100,8.4,100,8.2,100,12.6,100,0.0,100,1.5,100,,-1,,-1,,-1,,-1,,-1,,-1,,-1,,-1,1013.0,100,,-10,,-10,,-10,5,100,0.3,1,1,1,1013.0,1,1013.0,100,1013.0,100,,-10,,-10,,-10,,-10,,-10,,-10
2022-05-28T04:20:00Z,44488,9302000,EAST CHEDABUCTO BAY,0,45.445,-60.9538,18,2022-05-28T04:20:00.000Z,110,2022-05-28T04:26:56.149Z,45.4451,100,-60.95405,100,8.4,100,8.2,100,12.6,100,0.0,100,1.5,100,,-1,,-1,,-1,,-1,,-1,,-1,,-1,,-1,1013.0,100,,-10,,-10,,-10,5,100,0.2,1,2,1,1013.0,1,1013.0,100,1013.0,100,,-10,,-10,,-10,,-10,,-10,,-10
2022-05-28T04:30:00Z,44488,9302000,EAST CHEDABUCTO BAY,0,45.445,-60.9538,18,2022-05-28T04:30:00.000Z,110,2022-05-28T04:36:58.221Z,45.4451,100,-60.95408000000001,100,8.3,100,8.1,100,12.5,100,0.0,100,1.5,100,,-1,,-1,,-1,,-1,,-1,,-1,,-1,,-1,1012.8,100,,-10,,-10,,-10,5,100,0.1,1,0,1,1012.8,1,1012.8,100,1012.8,100,,-10,,-10,,-10,,-10,,-10,,-10
2022-05-28T04:40:00Z,44488,9302000,EAST CHEDABUCTO BAY,0,45.445,-60.9538,18,2022-05-28T04:40:00.000Z,110,2022-05-28T04:46:58.706Z,45.44512,100,-60.954069999999994,100,8.4,100,8.1,100,12.5,100,0.0,100,1.5,100,,-1,,-1,,-1,,-1,,-1,,-1,,-1,,-1,1012.8,100,,-10,,-10,,-10,5,100,-0.1,1,8,1,1012.8,1,1012.8,100,1012.8,100,,-10,,-10,,-10,,-10,,-10,,-10
2022-05-28T04:50:00Z,44488,9302000,EAST CHEDABUCTO BAY,0,45.445,-60.9538,18,2022-05-28T04:50:00.000Z,110,2022-05-28T04:57:01.564Z,45.4451,100,-60.95407,100,8.4,100,8.1,100,12.5,100,0.0,100,1.5,100,,-1,,-1,,-1,,-1,,-1,,-1,,-1,,-1,1012.7,100,,-10,,-10,,-10,5,100,-0.2,1,8,1,1012.7,1,1012.7,100,1012.7,100,,-10,,-10,,-10,,-10,,-10,,-10
2022-05-28T05:00:00Z,44488,9302000,EAST CHEDABUCTO BAY,0,45.445,-60.9538,18,2022-05-28T05:00:00.000Z,108,2022-05-28T05:07:03.438Z,45.44512,100,-60.95408000000001,100,8.4,100,8.0,100,12.5,100,0.0,100,1.5,100,0.3,100,0.8,100,7.0,100,0.5,100,0.6,100,7.3,100,5.0,100,7.4,100,1012.6,100,,-10,,-10,,-10,5,100,-0.2,1,8,1,1012.6,1,1012.6,100,1012.6,100,,-10,,-10,,-10,,-10,,-10,,-10
2022-05-28T05:10:00Z,44488,9302000,EAST CHEDABUCTO BAY,0,45.445,-60.9538,18,2022-05-28T05:10:00.000Z,110,2022-05-28T05:20:12.581Z,45.44512,100,-60.95408000000001,100,8.4,100,8.0,100,12.5,100,0.0,100,1.5,100,,-1,,-1,,-1,,-1,,-1,,-1,,-1,,-1,1012.6,100,,-10,,-10,,-10,5,100,-0.2,1,8,1,1012.6,1,1012.6,100,1012.6,100,,-10,,-10,,-10,,-10,,-10,,-10
2022-05-28T05:20:00Z,44488,9302000,EAST CHEDABUCTO BAY,0,45.445,-60.9538,18,2022-05-28T05:20:00.000Z,110,2022-05-28T05:32:17.596Z,45.44513,100,-60.9541,100,8.4,100,7.9,100,12.5,100,0.0,100,1.5,100,,-1,,-1,,-1,,-1,,-1,,-1,,-1,,-1,1012.6,100,,-10,,-10,,-10,5,100,-0.2,1,8,1,1012.6,1,1012.6,100,1012.6,100,,-10,,-10,,-10,,-10,,-10,,-10
2022-05-28T05:30:00Z,44488,9302000,EAST CHEDABUCTO BAY,0,45.445,-60.9538,18,2022-05-28T05:30:00.000Z,110,2022-05-28T05:37:17.518Z,45.44513,100,-60.95408000000001,100,8.4,100,7.9,100,12.5,100,0.0,100,1.5,100,,-1,,-1,,-1,,-1,,-1,,-1,,-1,,-1,1012.6,100,,-10,,-10,,-10,5,100,-0.4,1,8,1,1012.6,1,1012.6,100,1012.6,100,,-10,,-10,,-10,,-10,,-10,,-10
2022-05-28T05:40:00Z,44488,9302000,EAST CHEDABUCTO BAY,0,45.445,-60.9538,18,2022-05-28T05:40:00.000Z,110,2022-05-28T05:47:18.802Z,45.44515,100,-60.9541,100,8.3,100,7.8,100,12.5,100,0.0,100,1.5,100,,-1,,-1,,-1,,-1,,-1,,-1,,-1,,-1,1012.5,100,,-10,,-10,,-10,5,100,-0.4,1,8,1,1012.5,1,1012.5,100,1012.5,100,,-10,,-10,,-10,,-10,,-10,,-10
2022-05-28T05:50:00Z,44488,9302000,EAST CHEDABUCTO BAY,0,45.445,-60.9538,18,2022-05-28T05:50:00.000Z,110,2022-05-28T05:57:23.140Z,45.4451,100,-60.95408000000001,100,8.2,100,7.8,100,12.5,100,0.0,100,1.5,100,,-1,,-1,,-1,,-1,,-1,,-1,,-1,,-1,1012.4,100,,-10,,-10,,-10,5,100,-0.5,1,8,1,1012.4,1,1012.4,100,1012.4,100,,-10,,-10,,-10,,-10,,-10,,-10
2022-05-28T06:00:00Z,44488,9302000,EAST CHEDABUCTO BAY,0,45.445,-60.9538,18,2022-05-28T06:00:00.000Z,108,2022-05-28T06:07:17.288Z,45.44512,100,-60.954119999999996,100,8.1,100,7.7,100,12.5,100,0.0,100,1.5,100,0.3,100,0.7,100,6.2,100,0.5,100,0.6,100,6.6,100,4.6,100,8.7,100,1012.2,100,,-10,,-10,,-10,5,100,-0.8,1,8,1,1012.2,1,1012.2,100,1012.2,100,,-10,,-10,,-10,,-10,,-10,,-10
2022-05-28T06:10:00Z,44488,9302000,EAST CHEDABUCTO BAY,0,45.445,-60.9538,18,2022-05-28T06:10:00.000Z,110,2022-05-28T06:20:39.366Z,45.44513,100,-60.95412,100,7.9,100,7.7,100,12.5,100,0.0,100,1.6,100,,-1,,-1,,-1,,-1,,-1,,-1,,-1,,-1,1012.3,100,,-10,,-10,,-10,5,100,-0.7,1,8,1,1012.3,1,1012.3,100,1012.3,100,,-10,,-10,,-10,,-10,,-10,,-10
2022-05-28T06:20:00Z,44488,9302000,EAST CHEDABUCTO BAY,0,45.445,-60.9538,18,2022-05-28T06:20:00.000Z,110,2022-05-28T06:28:37.165Z,45.44512,100,-60.954130000000006,100,7.9,100,7.7,100,12.5,100,0.0,100,1.6,100,,-1,,-1,,-1,,-1,,-1,,-1,,-1,,-1,1012.2,100,,-10,,-10,,-10,5,100,-0.7,1,8,1,1012.2,1,1012.2,100,1012.2,100,,-10,,-10,,-10,,-10,,-10,,-10
2022-05-28T06:30:00Z,44488,9302000,EAST CHEDABUCTO BAY,0,45.445,-60.9538,18,2022-05-28T06:30:00.000Z,110,2022-05-28T06:37:40.240Z,45.44512,100,-60.95415,100,7.8,100,7.6,100,12.5,100,0.0,100,1.6,100,,-1,,-1,,-1,,-1,,-1,,-1,,-1,,-1,1012.0,100,,-10,,-10,,-10,5,100,-0.8,1,8,1,1012.0,1,1012.0,100,1012.0,100,,-10,,-10,,-10,,-10,,-10,,-10
2022-05-28T06:40:00Z,44488,9302000,EAST CHEDABUCTO BAY,0,45.445,-60.9538,18,2022-05-28T06:40:00.000Z,110,2022-05-28T06:46:39.821Z,45.44513,100,-60.954119999999996,100,7.9,100,7.6,100,12.5,100,0.0,100,1.5,100,,-1,,-1,,-1,,-1,,-1,,-1,,-1,,-1,1012.0,100,,-10,,-10,,-10,5,100,-0.9,1,8,1,1012.0,1,1012.0,100,1012.0,100,,-10,,-10,,-10,,-10,,-10,,-10
2022-05-28T06:50:00Z,44488,9302000,EAST CHEDABUCTO BAY,0,45.445,-60.9538,18,2022-05-28T06:50:00.000Z,110,2022-05-28T06:56:59.861Z,45.44513,100,-60.954130000000006,100,7.9,100,7.6,100,12.5,100,0.0,100,1.5,100,,-1,,-1,,-1,,-1,,-1,,-1,,-1,,-1,1012.0,100,,-10,,-10,,-10,5,100,-1.1,1,7,1,1012.0,1,1012.0,100,1012.0,100,,-10,,-10,,-10,,-10,,-10,,-10
2022-05-28T07:00:00Z,44488,9302000,EAST CHEDABUCTO BAY,0,45.445,-60.9538,18,2022-05-28T07:00:00.000Z,108,2022-05-28T07:07:13.334Z,45.44512,100,-60.95415,100,7.9,100,7.6,100,12.5,100,0.0,100,1.6,100,0.3,100,0.8,100,5.9,100,0.5,100,0.7,100,6.6,100,4.4,100,8.0,100,1012.0,100,,-10,,-10,,-10,5,100,-1.1,1,6,1,1012.0,1,1012.0,100,1012.0,100,,-10,,-10,,-10,,-10,,-10,,-10
2022-05-28T07:10:00Z,44488,9302000,EAST CHEDABUCTO BAY,0,45.445,-60.9538,18,2022-05-28T07:10:00.000Z,110,2022-05-28T07:21:13.552Z,45.44512,100,-60.954130000000006,100,8.1,100,7.5,100,12.5,100,0.0,100,1.6,100,,-1,,-1,,-1,,-1,,-1,,-1,,-1,,-1,1011.9,100,,-10,,-10,,-10,5,100,-1.1,1,7,1,1011.9,1,1011.9,100,1011.9,100,,-10,,-10,,-10,,-10,,-10,,-10
2022-05-28T07:20:00Z,44488,9302000,EAST CHEDABUCTO BAY,0,45.445,-60.9538,18,2022-05-28T07:20:00.000Z,110,2022-05-28T07:27:17.251Z,45.44512,100,-60.954130000000006,100,8.0,100,7.5,100,12.5,100,0.0,100,1.6,100,,-1,,-1,,-1,,-1,,-1,,-1,,-1,,-1,1011.8,100,,-10,,-10,,-10,5,100,-1.2,1,8,1,1011.8,1,1011.8,100,1011.7,100,,-10,,-10,,-10,,-10,,-10,,-10
2022-05-28T07:30:00Z,44488,9302000,EAST CHEDABUCTO BAY,0,45.445,-60.9538,18,2022-05-28T07:30:00.000Z,110,2022-05-28T07:37:22.895Z,45.44513,100,-60.954130000000006,100,8.1,100,7.5,100,12.5,100,0.0,100,1.6,100,,-1,,-1,,-1,,-1,,-1,,-1,,-1,,-1,1011.6,100,,-10,,-10,,-10,5,100,-1.2,1,8,1,1011.6,1,1011.6,100,1011.6,100,,-10,,-10,,-10,,-10,,-10,,-10
2022-05-28T07:40:00Z,44488,9302000,EAST CHEDABUCTO BAY,0,45.445,-60.9538,18,2022-05-28T07:40:00.000Z,110,2022-05-28T07:46:31.710Z,45.44513,100,-60.954119999999996,100,8.7,100,7.5,100,12.5,100,0.0,100,1.5,100,,-1,,-1,,-1,,-1,,-1,,-1,,-1,,-1,1011.5,100,,-10,,-10,,-10,5,100,-1.3,1,8,1,1011.5,1,1011.5,100,1011.5,100,,-10,,-10,,-10,,-10,,-10,,-10
2022-05-28T07:50:00Z,44488,9302000,EAST CHEDABUCTO BAY,0,45.445,-60.9538,18,2022-05-28T07:50:00.000Z,110,2022-05-28T07:57:35.346Z,45.44513,100,-60.95415,100,8.6,100,7.5,100,12.5,100,0.0,100,1.5,100,,-1,,-1,,-1,,-1,,-1,,-1,,-1,,-1,1011.4,100,,-10,,-10,,-10,5,100,-1.3,1,8,1,1011.4,1,1011.4,100,1011.4,100,,-10,,-10,,-10,,-10,,-10,,-10
2022-05-28T08:00:00Z,44488,9302000,EAST CHEDABUCTO BAY,0,45.445,-60.9538,18,2022-05-28T08:00:00.000Z,108,2022-05-28T08:06:35.951Z,45.44513,100,-60.954130000000006,100,8.6,100,7.5,100,12.5,100,0.0,100,1.5,100,0.3,100,0.8,100,6.2,100,0.5,100,0.7,100,6.4,100,4.6,100,6.7,100,1011.3,100,,-10,,-10,,-10,5,100,-1.3,1,8,1,1011.3,1,1011.3,100,1011.3,100,,-10,,-10,,-10,,-10,,-10,,-10
2022-05-28T08:10:00Z,44488,9302000,EAST CHEDABUCTO BAY,0,45.445,-60.9538,18,2022-05-28T08:10:00.000Z,110,2022-05-28T08:19:26.140Z,45.44517000000001,100,-60.954130000000006,100,8.7,100,7.5,100,12.5,100,0.0,100,1.5,100,,-1,,-1,,-1,,-1,,-1,,-1,,-1,,-1,1011.1,100,,-10,,-10,,-10,5,100,-1.5,1,8,1,1011.1,1,1011.1,100,1011.1,100,,-10,,-10,,-10,,-10,,-10,,-10
2022-05-28T08:20:00Z,44488,9302000,EAST CHEDABUCTO BAY,0,45.445,-60.9538,18,2022-05-28T08:20:00.000Z,110,2022-05-28T08:26:38.268Z,45.44517000000001,100,-60.954130000000006,100,8.6,100,7.5,100,12.5,100,0.0,100,1.5,100,,-1,,-1,,-1,,-1,,-1,,-1,,-1,,-1,1011.2,100,,-10,,-10,,-10,5,100,-1.4,1,8,1,1011.2,1,1011.2,100,1011.2,100,,-10,,-10,,-10,,-10,,-10,,-10
2022-05-28T08:30:00Z,44488,9302000,EAST CHEDABUCTO BAY,0,45.445,-60.9538,18,2022-05-28T08:30:00.000Z,110,2022-05-28T08:36:41.046Z,45.44517000000001,100,-60.95412,100,8.5,100,7.5,100,12.5,100,0.0,100,1.6,100,,-1,,-1,,-1,,-1,,-1,,-1,,-1,,-1,1011.0,100,,-10,,-10,,-10,5,100,-1.5,1,8,1,1011.0,1,1011.0,100,1011.0,100,,-10,,-10,,-10,,-10,,-10,,-10
2022-05-28T08:40:00Z,44488,9302000,EAST CHEDABUCTO BAY,0,45.445,-60.9538,18,2022-05-28T08:40:00.000Z,110,2022-05-28T08:46:41.118Z,45.44518,100,-60.954119999999996,100,8.5,100,7.5,100,12.5,100,0.0,100,1.6,100,,-1,,-1,,-1,,-1,,-1,,-1,,-1,,-1,1010.8,100,,-10,,-10,,-10,5,100,-1.7,1,8,1,1010.8,1,1010.8,100,1010.8,100,,-10,,-10,,-10,,-10,,-10,,-10
2022-05-28T08:50:00Z,44488,9302000,EAST CHEDABUCTO BAY,0,45.445,-60.9538,18,2022-05-28T08:50:00.000Z,110,2022-05-28T08:56:41.128Z,45.44518,100,-60.95412,100,8.6,100,7.5,100,12.5,100,0.0,100,1.5,100,,-1,,-1,,-1,,-1,,-1,,-1,,-1,,-1,1011.0,100,,-10,,-10,,-10,5,100,-1.4,1,7,1,1011.0,1,1011.0,100,1011.0,100,,-10,,-10,,-10,,-10,,-10,,-10
2022-05-28T09:00:00Z,44488,9302000,EAST CHEDABUCTO BAY,0,45.445,-60.9538,18,2022-05-28T09:00:00.000Z,108,2022-05-28T09:06:40.787Z,45.44518,100,-60.9541,100,8.6,100,7.5,100,12.5,100,0.0,100,1.5,100,0.4,100,1.1,100,6.5,100,0.6,100,0.8,100,6.3,100,5.0,100,6.3,100,1011.0,100,,-10,,-10,,-10,5,100,-1.2,1,7,1,1011.0,1,1011.0,100,1011.0,100,,-10,,-10,,-10,,-10,,-10,,-10
2022-05-28T09:10:00Z,44488,9302000,EAST CHEDABUCTO BAY,0,45.445,-60.9538,18,2022-05-28T09:10:00.000Z,110,2022-05-28T09:19:54.370Z,45.44518,100,-60.9541,100,8.6,100,7.6,100,12.5,100,0.0,100,1.6,100,,-1,,-1,,-1,,-1,,-1,,-1,,-1,,-1,1011.1,100,,-10,,-10,,-10,5,100,-1.1,1,6,1,1011.1,1,1011.1,100,1011.1,100,,-10,,-10,,-10,,-10,,-10,,-10
2022-05-28T09:20:00Z,44488,9302000,EAST CHEDABUCTO BAY,0,45.445,-60.9538,18,2022-05-28T09:20:00.000Z,110,2022-05-28T09:26:57.228Z,45.44518,100,-60.9541,100,8.7,100,7.6,100,12.5,100,0.0,100,1.5,100,,-1,,-1,,-1,,-1,,-1,,-1,,-1,,-1,1011.2,100,,-10,,-10,,-10,5,100,-1.0,1,5,1,1011.2,1,1011.2,100,1011.2,100,,-10,,-10,,-10,,-10,,-10,,-10
2022-05-28T09:30:00Z,44488,9302000,EAST CHEDABUCTO BAY,0,45.445,-60.9538,18,2022-05-28T09:30:00.000Z,110,2022-05-28T09:36:53.314Z,45.44518,100,-60.9541,100,8.9,100,7.6,100,12.5,100,0.0,100,1.5,100,,-1,,-1,,-1,,-1,,-1,,-1,,-1,,-1,1011.2,100,,-10,,-10,,-10,5,100,-0.9,1,5,1,1011.2,1,1011.2,100,1011.2,100,,-10,,-10,,-10,,-10,,-10,,-10
2022-05-28T09:40:00Z,44488,9302000,EAST CHEDABUCTO BAY,0,45.445,-60.9538,18,2022-05-28T09:40:00.000Z,110,2022-05-28T09:47:03.451Z,45.44518,100,-60.95399999999999,100,9.3,100,7.7,100,12.5,100,0.1,100,1.5,100,,-1,,-1,,-1,,-1,,-1,,-1,,-1,,-1,1011.2,100,,-10,,-10,,-10,5,100,-0.8,1,5,1,1011.2,1,1011.2,100,1011.2,100,,-10,,-10,,-10,,-10,,-10,,-10
2022-05-28T09:50:00Z,44488,9302000,EAST CHEDABUCTO BAY,0,45.445,-60.9538,18,2022-05-28T09:50:00.000Z,110,2022-05-28T09:56:52.860Z,45.44517000000001,100,-60.95407,100,9.6,100,7.7,100,12.5,100,0.2,100,1.5,100,,-1,,-1,,-1,,-1,,-1,,-1,,-1,,-1,1011.3,100,,-10,,-10,,-10,5,100,-0.7,1,5,1,1011.3,1,1011.3,100,1011.3,100,,-10,,-10,,-10,,-10,,-10,,-10
2022-05-28T10:00:00Z,44488,9302000,EAST CHEDABUCTO BAY,0,45.445,-60.9538,18,2022-05-28T10:00:00.000Z,108,2022-05-28T10:06:55.213Z,45.44517000000001,100,-60.95405,100,9.8,100,7.7,100,12.6,100,0.2,100,1.5,100,0.4,100,1.0,100,6.2,100,0.6,100,0.8,100,6.2,100,5.0,100,6.3,100,1011.0,100,,-10,,-10,,-10,5,100,-1.0,1,6,1,1011.0,1,1011.0,100,1011.0,100,,-10,,-10,,-10,,-10,,-10,,-10
2022-05-28T10:10:00Z,44488,9302000,EAST CHEDABUCTO BAY,0,45.445,-60.9538,18,2022-05-28T10:10:00.000Z,110,2022-05-28T10:20:09.781Z,45.44517000000001,100,-60.95407,100,9.7,100,7.8,100,12.7,100,0.4,100,1.5,100,,-1,,-1,,-1,,-1,,-1,,-1,,-1,,-1,1011.1,100,,-10,,-10,,-10,5,100,-0.8,1,6,1,1011.1,1,1011.1,100,1011.1,100,,-10,,-10,,-10,,-10,,-10,,-10
2022-05-28T10:20:00Z,44488,9302000,EAST CHEDABUCTO BAY,0,45.445,-60.9538,18,2022-05-28T10:20:00.000Z,110,2022-05-28T10:27:10.096Z,45.44517000000001,100,-60.95405,100,9.7,100,7.8,100,12.7,100,0.4,100,1.5,100,,-1,,-1,,-1,,-1,,-1,,-1,,-1,,-1,1011.2,100,,-10,,-10,,-10,5,100,-0.5,1,6,1,1011.2,1,1011.2,100,1011.2,100,,-10,,-10,,-10,,-10,,-10,,-10
2022-05-28T10:30:00Z,44488,9302000,EAST CHEDABUCTO BAY,0,45.445,-60.9538,18,2022-05-28T10:30:00.000Z,110,2022-05-28T10:37:14.051Z,45.44518,100,-60.95403,100,9.7,100,7.8,100,12.7,100,0.4,100,1.5,100,,-1,,-1,,-1,,-1,,-1,,-1,,-1,,-1,1011.2,100,,-10,,-10,,-10,5,100,-0.4,1,5,1,1011.2,1,1011.2,100,1011.2,100,,-10,,-10,,-10,,-10,,-10,,-10